Regional Weather Roundup
Issued by NWS Wakefield, VA

Home | Current Version | Previous Version | Text Only | Print | Product List | Glossary Off
Versions: 1 2 3 4 5 6 7 8 9 10 11 12 13 14 15 16 17 18 19 20 21 22 23 24 25 26 27 28

000
ASUS41 KAKQ 211415
RWRAKQ

REGIONAL WEATHER ROUNDUP
NATIONAL WEATHER SERVICE WAKEFIELD VA
900 AM EST WED FEB 21 2018

Note: "fair" indicates few or no clouds below 12,000 feet with no
significant weather and/or obstructions to visibility. * = Denotes
station may not report precipitation (e.g., rain,snow,etc.),
thunder or fog.

VAZ042-051-052>054-056-211500-
NORTHERN VIRGINIA

CITY           SKY/WX    TMP DP  RH WIND       PRES   REMARKS
WASH NATIONAL  PTSUNNY   66  62  87 SW22G28   30.36R
DULLES         PTSUNNY   65  60  84 S16       30.34S
FORT BELVOIR   PTSUNNY   65  60  86 S7        30.37R
QUANTICO       CLOUDY    68  63  84 SW13G23   30.39R
FREDERICKSBRG* CLOUDY    67  64  89 SW13G21   30.39R
STAFFORD*      CLOUDY    67  65  96 SW14G24   30.43R
WARRENTON      CLOUDY    67  59  75 SW14      30.37R
CULPEPER*      PTSUNNY   66  60  80 SW12G20   30.38R
MANASSAS*      CLOUDY    65  60  84 SW10G20   30.37R
LEESBURG*      FAIR      63  61  94 S8        30.34S
WINCHESTER     PTSUNNY   63  54  72 SW9       30.34R
FRONT ROYAL*   CLOUDY    68  57  68 SW6       30.32S
LURAY*         PTSUNNY   64  57  77 SW15G23   30.35R
$$

VAZ048-049-060>072-079>083-211500-
CENTRAL AND SOUTH CENTRAL VIRGINIA

CITY           SKY/WX    TMP DP  RH WIND       PRES   REMARKS
RICHMOND       PTSUNNY   67  63  87 S12       30.43R
CHESTERFIELD*  CLOUDY    67  62  84 SW7       30.44R
PETERSBURG*    NOT AVBL
HANOVER        CLOUDY    68  62  81 SW9       30.43R
TAPPAHANNOCK*  CLOUDY    67  63  86 S7        30.42S
QUINTON*       FAIR      67  63  88 SW7G26    30.43S
CHARLOTTSVILLE PTSUNNY   65  60  84 S14       30.38S
GORDONSVILLE*  CLOUDY    61  61 100 SW7       30.39R
ORANGE*        CLOUDY    63  59  88 SW13G18   30.39S
LOUISA*        CLOUDY    65  62  90 S8G18     30.44S
BUMPASS*       CLOUDY    65  63  96 SW8       30.40S
FARMVILLE*     CLOUDY   N/A N/A N/A S8        30.41S
CREWE*         CLOUDY    66  66 100 SW7       30.44R
FORT PICKETT*  CLOUDY    65  65 100 SW8       30.45R
CHASE CITY*    CLOUDY    65  65 100 S3        30.45R
CLARKSVILLE*   CLOUDY    66  66 100 S10       30.45R
SOUTH HILL*    CLOUDY    65  64  96 SW8       30.51R
LAWRENCEVILLE* CLOUDY    65  64  93 SW8       30.45S
EMPORIA*       CLOUDY    64  63  94 S6        30.47R
$$

VAZ088>098-211500-
SOUTHEAST VIRGINIA

CITY           SKY/WX    TMP DP  RH WIND       PRES   REMARKS
NORFOLK        CLOUDY    69  65  86 SW14      30.45S
VIRGINIA BEACH PTSUNNY   69  63  81 SW16      30.45F
NORFOLK NAVAL  PTSUNNY   68  63  84 SW9       30.46F
WEST POINT*    PTSUNNY   67  62  83 SW6       30.45F
SALUDA*        CLOUDY    66  65  96 SW7G21    30.43R
NEWPORT NEWS   CLOUDY    66  63  90 SW7       30.45S
LANGLEY AFB    PTSUNNY   66  66 100 SW10      30.45S
FORT EUSTIS    CLOUDY    65  64  94 SW3       30.43S
WILLIAMSBURG*  PTSUNNY   66  66 100 SW6       30.46R
HR EXEC AP*    CLOUDY    68  64  87 SW8G16    30.47S
FRANKLIN*      CLOUDY    65  64  98 SW12      30.47S
US460-WAKEFLD  CLOUDY    66  65  96 SW8       30.45S
$$

VAZ020-022-025-037-045-211500-
WEST CENTRAL AND SOUTHWEST VIRGINIA

CITY           SKY/WX    TMP DP  RH WIND       PRES   REMARKS
STAUNTON*      FAIR      60  55  85 CALM      30.40R
WAYNESBORO*    FAIR      66  58  77 CALM      30.39S
HOT SPRINGS VA CLOUDY    60  56  88 SW17G24   30.46R
LYNCHBURG      CLOUDY    61  60  97 S7        30.43R FOG
DANVILLE       CLOUDY    64  64 100 VRB5      30.44S
SOUTH BOSTON*  CLOUDY    67  66  95 SW6       30.45R
MARTINSVILLE   CLOUDY    60  60  97 CALM      30.47R FOG
ROANOKE        PTSUNNY   61  57  87 NE3       30.44R
BLACKSBURG     CLOUDY    64  60  86 SW6       30.47R
DUBLIN*        CLOUDY    65  61  87 SW3       30.44R
MARION*        CLOUDY    65  56  73 CALM      30.45R
HILLSVILLE*    CLOUDY    60  59  96 S5        30.45R
RICHLANDS*     FAIR      62  57  86 S3        30.42S
WISE*          PTSUNNY   64  59  82 S12       30.40R
ABINGDON*      FAIR      65  58  77 CALM      30.41R
$$

MDZ021>025-VAZ099-100-211500-
SOUTHERN MARYLAND AND THE DELMARVA PENINSULA

CITY           SKY/WX    TMP DP  RH WIND       PRES   REMARKS
PATUXENT RIVER CLOUDY    65  62  90 SW14G21   30.40R
BAY BRIDGE APT NOT AVBL
LEONARDTOWN    CLOUDY    63  61  94 SW10G17   30.42R
DOVER          CLOUDY    66  63  88 SW15G23   30.35R
GEORGETOWN     CLOUDY    67  62  84 SW16G25   30.39R
EASTON         CLOUDY    64  61  88 SW16G23   30.40S
CAMBRIDGE      CLOUDY    64  63  94 S9        30.39R
SALISBURY      CLOUDY    66  63  90 SW12      30.41R
OCEAN CITY     CLOUDY    59  59 100 SW6       30.42S
WALLOPS ISLAND PTSUNNY   62  60  93 MISG      30.43S
ACCOMACK*      CLOUDY    67  64  89 SW13G21   30.44R
$$

NCZ012>017-030>032-211500-
NORTH CENTRAL AND EASTERN NORTH CAROLINA

CITY           SKY/WX    TMP DP  RH WIND       PRES   REMARKS
ROANOKE RAPIDS CLOUDY    64  64 100 SW8       30.47S
RALEIGH        CLOUDY    66  64  93 SW9       30.48R
ELIZABETH CITY FOG       64  64 100 SW8       30.49S VSB 1/4
AHOSKIE*       CLOUDY    65  65 100 SW3       30.48S
EDENTON*       FOG       66  66 100 SW5       30.50S VSB 1/4
CURRITUCK*     FOG       59  59  98 SW7       30.50R VSB 1/2
KILL DEVIL HLS FAIR     N/A N/A N/A CALM      30.49R
MANTEO         FAIR      60  60 100 SW6       30.50S
CAPE HATTERAS  PTSUNNY   68  67  96 SW5       30.51R
TARBORO*       NOT AVBL
GOLDSBORO      CLOUDY    64  64 100 SW3       30.49R FOG
WASHINGTON     FOG       65  64  97 SW5       30.51R VSB 3/4
GREENVILLE     CLOUDY    66  64  94 W6        30.50R
NEW BERN       FAIR      70  67  90 SW7       30.51R
WILMINGTON     FAIR      66  66 100 CALM      30.50S
$$

VAZ048-211500-
ELSEWHERE

CITY           SKY/WX    TMP DP  RH WIND       PRES   REMARKS
HARRISBURG PA  PTSUNNY   49  47  93 CALM      30.29F FOG
BALTIMORE      FAIR      66  62  87 SW16G22   30.32S
ANNAPOLIS      FAIR      69  64  84 SW12G18   30.35R
ANDREWS AFB    CLOUDY    65  61  87 SW21G30   30.36R
PHILADELPHIA   CLOUDY    62  60  93 SW12      30.33S
HENDERSON NC   CLOUDY    64  60  88 SW10G23   30.46R
GREENSBORO     PTSUNNY   66  65  96 SW10      30.44R
ROCKY MOUNT    CLOUDY    66  64  93 S7        30.49R
$$

VAZ100-211500-
MARINE

STATION/POSITION TIME  TEMP    WIND        PRES    WAVE   SWELL
                       AIR SEA DIR/SP/G            HT/PER HT/PER
                 (UTC) (F)     (DEG/KT/KT) (MB)    (FT/S) (FT/S)
BRANDYWINE LGT   1342   63     230/ 24/ 25 1028.6R
CAPE MAY NJ      1348   56 42  220/ 14/ 18 1028.2R
LEWES DE         1342   67 43  230/  5/ 17 1028.6S
15NM E FENWICK I 1350   46 41  200/ 14/ 14 1030.2R   3/ 5   2/12
OCEAN-CITY-INLET 1342   49 48  210/ 11/ 13 1030.4S
WACHAPREAGUE VA  1342   57 52  210/  8/  9 1030.9R
THOMAS POINT MD  1400   62 40  230/ 15/ 16   N/A
GOOSES REEF MD   1400   54 40  210/ 10/ 12 1029.4    1/ 2
COVE POINT MD    1342   65     230/ 16/ 21 1029.6R
SOLOMONS ISLAND  1342   60 42  230/ 15/ 18 1029.2R
BISHOPS HEAD MD  1342   53 49  200/ 11/ 13 1030.0R
PINEY POINT MD   1342          250/  9/ 11   N/A
POTOMAC MD       1400   56 43   50/ 16/ 19 1029.0    1/ 2
CAMBRIDGE MD     1342   63 46              1029.5S
LEWISETTA VA     1342   65 50  240/ 14/ 17 1029.7R
RAPPAHANNOCK LGT 1342          180/ 13/ 14 1031.4R
STINGRAY PT      1400   55 43  270/  6/  8 1033.4    1/ 2
YORK RVR RNG VA  1342   59     230/ 13/ 14 1031.4R
YORKTOWN VA      1342   65 47  220/  8/ 12 1030.7R
DOMINION TERM VA 1342   59     220/  9/ 10 1031.5F
KIPTOPEKE VA     1342      44  170/  3/  4   N/A
CAPE HENRY VA    1342   68     210/ 10/ 13   N/A
S CRANEY ISL VA  1342   66     220/  8/ 11 1031.1F
CAPE HENRY BUOY  1400      44                N/A     3/11   2/11
1ST LANDING BUOY 1400   55 42  250/ 10/ 10 1031.3    1/ 4
CAPE CHARLES BUO 1351      44                N/A     2/11   2/11
64NM E OF VA BCH 1350   53 50  200/  8/ 10 1032.8R   3/12   3/12
DUCK PIER NC     1342   65 44  210/ 10/ 13 1032.0R
44100 DUCK FRF   1345      46                N/A     3/11   2/11
44056 DUCK FRF   1400      47                N/A     3/13   2/13
OREGON INLET NC  1342   60 57  200/  7/  8 1032.7R
HATTERAS NC      1342   67 59  200/  3/  7 1032.9R
DIAMOND SHLS NC  1350   72 71  210/ 10/ 14 1033.5R   4/13   3/13
CAPE LOOKOUT NC  1300          190/  4/  4 1032.8R
$$




USA.gov is the U.S. government's official web portal to all federal, state and local government web resources and services.